Visibility
15.0 15.0 15.0 15.0 15.0 15.0 15.0 15.0 15.0 15.0 15.0 15.0 15.0 15.0 15.0 15.0 15.0 15.0 15.0 15.0 15.0 15.0 15.0 15.0 15.0 15.0 15.0 15.0 15.0 15.0 15.0 15.0 15.0 15.0 15.0 15.0 15.0 15.0 15.0 15.0 15.0 15.0 15.0
15.0 15.0 15.0 15.0 15.0 15.0 15.0 15.0 15.0 15.0 15.0 15.0 15.0 15.0 15.0 15.0 15.0 15.0 15.0 15.0 15.0 15.0 15.0 15.0 15.0 15.0 15.0 15.0 15.0 15.0 15.0 15.0 15.0 15.0 15.0 15.0 15.0 15.0 15.0 15.0 15.0 15.0 15.0
15.0 15.0 15.0 15.0 15.0 15.0 15.0 15.0 15.0 15.0 15.0 15.0 15.0 15.0 15.0 15.0 15.0 15.0 15.0 15.0 15.0 15.0 15.0 15.0 15.0 15.0 15.0 15.0 15.0 15.0 15.0 15.0 15.0 15.0 15.0 15.0 15.0 15.0 15.0 15.0 15.0 15.0 15.0
15.0 15.0 15.0 15.0 15.0 15.0 15.0 15.0 15.0 15.0 15.0 15.0 15.0 15.0 15.0 15.0 15.0 15.0 15.0 15.0 15.0 15.0 15.0 15.0 15.0 15.0 15.0 15.0 15.0 15.0 15.0 15.0 15.0 15.0 15.0 15.0 15.0 15.0 15.0 15.0 15.0 15.0 15.0
15.0 15.0 15.0 15.0 15.0 15.0 15.0 15.0 15.0 15.0 15.0 15.0 15.0 15.0 15.0 15.0 15.0 15.0 15.0 15.0 15.0 15.0 15.0 15.0 15.0 15.0 15.0 15.0 15.0 15.0 15.0 15.0 15.0 15.0 15.0 15.0 15.0 15.0 15.0 15.0 15.0 15.0 15.0
15.0 15.0 15.0 15.0 15.0 15.0 15.0 15.0 15.0 15.0 15.0 15.0 15.0 15.0 15.0 15.0 15.0 8.1 15.0 15.0 15.0 15.0 15.0 15.0 15.0 15.0 15.0 15.0 15.0 15.0 15.0 15.0 15.0 4.1 15.0 15.0 15.0 15.0 15.0 15.0 3.4 11.1 8.2
15.0 15.0 15.0 15.0 15.0 15.0 15.0 15.0 15.0 15.0 15.0 13.6 4.8 9.2 12.9 14.8 2.1 15.0 15.0 15.0 15.0 15.0 15.0 15.0 15.0 15.0 15.0 15.0 15.0 15.0 15.0 15.0 15.0 15.0 15.0 15.0 15.0 15.0 13.1 0.8 7.1 15.0 15.0
15.0 15.0 15.0 15.0 15.0 15.0 15.0 15.0 11.1 4.0 3.7 1.9 1.4 2.0 3.1 1.3 4.7 15.0 15.0 15.0 15.0 15.0 15.0 15.0 15.0 15.0 15.0 15.0 15.0 15.0 15.0 15.0 15.0 15.0 15.0 15.0 15.0 15.0 0.1 7.7 10.5 15.0 15.0
15.0 15.0 15.0 15.0 15.0 15.0 15.0 7.0 7.8 12.9 2.1 1.2 2.9 1.9 1.3 1.7 6.6 15.0 15.0 15.0 15.0 15.0 15.0 15.0 15.0 15.0 15.0 15.0 15.0 15.0 15.0 15.0 15.0 15.0 15.0 6.6 0.3 12.4 15.0 15.0 15.0 4.2 13.8
15.0 15.0 15.0 15.0 15.0 13.6 9.1 14.7 7.9 11.3 14.6 1.9 2.2 1.9 1.7 14.1 15.0 15.0 15.0 15.0 15.0 15.0 15.0 15.0 15.0 15.0 15.0 15.0 15.0 15.0 15.0 15.0 15.0 15.0 15.0 14.4 15.0 15.0 15.0 15.0 15.0 4.1 1.2
15.0 15.0 15.0 15.0 15.0 15.0 7.5 1.6 1.7 1.4 1.8 1.8 2.3 1.6 13.7 15.0 14.7 9.8 15.0 15.0 15.0 15.0 15.0 15.0 15.0 15.0 15.0 15.0 15.0 15.0 15.0 15.0 8.3 4.1 1.1 2.0 15.0 15.0 15.0 15.0 15.0 15.0 13.4
15.0 15.0 15.0 15.0 4.7 3.2 0.4 1.1 1.2 1.1 2.0 1.7 2.3 14.7 12.9 15.0 15.0 15.0 15.0 15.0 15.0 15.0 15.0 15.0 15.0 15.0 15.0 15.0 15.0 15.0 13.4 12.1 0.1 0.3 0.8 12.9 15.0 15.0 15.0 15.0 15.0 15.0 15.0
15.0 3.2 0.7 0.6 0.1 0.1 0.1 0.2 1.5 3.5 6.9 14.7 15.0 13.0 15.0 15.0 15.0 15.0 15.0 15.0 15.0 15.0 15.0 15.0 15.0 15.0 15.0 15.0 15.0 11.5 0.8 0.1 0.2 0.3 1.3 15.0 15.0 15.0 15.0 15.0 15.0 15.0 15.0
1.4 1.5 1.9 2.5 1.7 3.6 13.0 15.0 15.0 15.0 15.0 15.0 15.0 15.0 15.0 15.0 15.0 15.0 15.0 15.0 13.9 13.7 14.3 13.3 15.0 15.0 1.3 0.4 0.3 1.4 0.2 0.1 0.1 0.4 1.5 14.3 15.0 15.0 13.8 15.0 14.5 15.0 9.6
15.0 15.0 15.0 15.0 15.0 15.0 12.6 15.0 15.0 15.0 15.0 15.0 14.7 15.0 15.0 15.0 15.0 15.0 11.6 13.1 12.2 15.0 15.0 7.3 15.0 15.0 11.6 12.0 9.8 0.4 0.6 0.3 0.2 0.4 0.2 1.0 15.0 15.0 15.0 15.0 15.0 10.5 4.2
15.0 15.0 15.0 15.0 15.0 15.0 15.0 4.1 15.0 15.0 15.0 15.0 15.0 15.0 9.3 15.0 15.0 15.0 15.0 15.0 15.0 15.0 5.2 12.3 15.0 3.0 0.4 0.9 0.3 2.4 5.6 5.0 0.6 0.1 0.1 0.3 12.8 15.0 15.0 15.0 15.0 13.7 4.0
15.0 15.0 11.6 15.0 7.1 6.3 4.2 15.0 4.1 2.3 15.0 15.0 15.0 15.0 15.0 14.7 15.0 15.0 9.0 1.2 0.3 0.4 0.1 0.1 0.2 1.2 1.0 0.7 0.5 0.3 0.4 0.8 0.2 0.2 0.2 1.6 5.9 4.2 3.3 7.2 15.0 10.7 8.1
15.0 15.0 11.5 4.1 4.1 4.1 4.1 4.1 15.0 6.0 3.0 1.2 5.7 2.6 3.5 1.8 15.0 15.0 14.3 7.8 15.0 2.8 0.2 0.6 6.0 9.0 4.4 2.8 3.0 2.0 1.6 1.4 0.5 0.4 0.4 0.5 0.4 0.6 1.1 5.3 15.0 4.0 4.7
15.0 5.2 4.1 4.1 4.1 6.3 5.2 4.1 13.5 15.0 15.0 6.0 0.6 1.7 5.0 9.8 15.0 15.0 15.0 15.0 14.4 11.3 10.2 12.0 10.6 7.8 7.7 5.3 4.1 2.4 1.2 0.9 0.7 0.4 0.4 0.3 0.4 0.3 1.2 2.5 3.7 8.7 4.5
4.7 11.4 10.0 4.1 4.1 4.1 4.2 5.5 14.1 15.0 15.0 15.0 4.1 4.1 13.9 15.0 15.0 15.0 7.4 11.0 4.1 4.1 4.3 4.1 4.7 4.1 4.7 4.5 3.0 1.5 1.5 3.3 3.7 2.1 1.5 0.6 0.4 0.3 0.8 1.4 0.8 3.5 4.4
14.8 14.9 15.0 15.0 15.0 15.0 15.0 15.0 15.0 15.0 15.0 8.3 13.7 4.9 7.4 12.3 9.0 15.0 15.0 15.0 10.1 4.2 8.1 4.1 6.1 4.1 3.2 3.0 2.3 2.2 2.2 4.3 4.3 2.6 0.7 0.5 0.3 0.3 0.5 0.3 1.3 4.0 3.1
15.0 15.0 15.0 15.0 15.0 15.0 10.0 15.0 15.0 15.0 9.8 12.6 15.0 15.0 1.5 15.0 15.0 15.0 15.0 12.6 15.0 15.0 15.0 10.8 7.2 4.1 3.5 2.3 1.6 0.9 1.4 2.7 4.3 1.4 0.7 0.8 0.4 0.3 0.2 0.3 10.7 5.0 4.5
15.0 15.0 15.0 12.4 15.0 15.0 15.0 15.0 15.0 15.0 15.0 15.0 15.0 15.0 15.0 14.9 15.0 15.0 15.0 14.7 15.0 15.0 15.0 4.5 4.0 4.9 15.0 4.2 3.7 2.4 1.6 3.0 15.0 2.1 0.9 0.8 0.4 0.2 0.2 3.0 4.1 4.1 4.1
15.0 15.0 15.0 14.7 15.0 15.0 15.0 15.0 15.0 15.0 15.0 13.8 14.9 15.0 15.0 14.9 12.7 11.5 14.5 15.0 12.6 14.6 8.4 5.7 5.7 5.3 4.9 4.3 6.4 10.2 3.6 3.8 1.3 1.4 0.9 0.7 0.3 0.2 3.2 3.9 4.0 5.7 14.2
15.0 15.0 15.0 15.0 15.0 15.0 15.0 15.0 15.0 15.0 14.5 15.0 15.0 9.2 15.0 14.3 14.3 9.0 14.4 14.6 10.1 6.1 15.0 15.0 14.1 14.6 12.9 14.9 15.0 9.7 5.8 4.0 7.8 5.2 4.6 3.7 7.4 14.5 3.8 3.4 7.1 14.5 14.9
15.0 15.0 12.8 15.0 15.0 15.0 15.0 15.0 15.0 15.0 15.0 15.0 15.0 13.8 11.8 11.5 15.0 13.7 15.0 11.8 15.0 15.0 15.0 15.0 15.0 15.0 15.0 15.0 15.0 11.0 6.2 8.3 12.6 15.0 15.0 15.0 15.0 8.9 4.2 4.2 6.2 3.7 3.6